sat.trackr.live / text

‹ back to catalog

SCS-01 B

NORAD 63983 · 2025-100B

PAYLOAD ACTIVE UNKNOWN

§ Identity

Operator
Country
PRC
Launch date
2025-05-14
Launch site
JSC
Launch vehicle
Mass (kg)
RCS (m²)

External: N2YO · Heavens-Above · Gunter

§ Orbital elements

Epoch: 2026-09-21T23:41:46.590720Z

Period
93.27 min
Inclination
97.3555°
Eccentricity
0.0006767
Mean motion
15.43891979 rev/d
Perigee alt
430.0 km
Apogee alt
439.2 km
Semi-major
6,812.8 km
B*
5.4449e-4
RAAN
342.8004°
Arg perigee
305.2134°
Mean anomaly
54.8480°
Rev number
7,582

§ Raw data

SCS-01 B1 63983U 25100B   26264.98734480  .00024703  00000+0  54449-3 0  99942 63983  97.3555 342.8004 0006767 305.2134  54.8480 15.43891979 75827

JSON: /api/v1/satellites/63983 · /tle

For live sub-satellite position, see the globe view (requires WebGL).

§ Visibility from observer

Set your observer location to see the next 7 days of passes ≥ 10°. The values pass through the URL so the page stays shareable.

No JS? Fill the form by hand. The geolocation button needs JavaScript.